Content
SEND FEEDBACK

Daily
Averages
Monthly
Summary
United States of America

HAZLETON, PENNSYLVANIA


Home > North America > United States > Pennsylvania
Elevation: 1785 feet     Latitude: 41 01N     Longitude: 075 54W

WEATHER
 
SELECT A DAY
Number of Records: 219,382;   Date Range: 1/1/95 - 11/25/14
 
SHARE

PRINT THIS DATA

[ ← Previous Day ]
WEATHER ALMANAC - OCTOBER 12, 2013
[ Next Day → ]
[ °C ]   °F
Weather ElementAverageHighLow
Temperature63.9 °F75 °F (2:54 pm)57.9 °F (6:54 am)
Dewpoint41.5 °F52 °F (10:54 pm)30.9 °F (12:54 pm)
Humidity46.9 %78 % (10:54 pm)21 % (12:54 pm)
Barometer30.17 in30.26 in (10:43 pm)30.09 in (1:54 am)
Wind Speed5.3 mph11.5 mph (11:54 am)
Wind Gust19.6 mph (11:54 am)
Weather ElementAverage
Visibility10 mi
Wind DirectionENE (55.4 °)

Weather ElementTotal
Precipitation---
Cooling Degree Days1.5 (Base 65)
Growing Degree Days16.5 (Base 50)
Averaged from 24 records on October 12, 2013
WEATHER CONDITIONS BREAKOUT
WIND DIRECTION BREAKOUT
WEATHER BY HOUR - OCTOBER 12, 2013
[ °C ]   °F
Local TimeTemperatureDewpointHumidityBarometerVisibilityWind DirectionWind SpeedGust SpeedPrecipitationEventsConditions
1:54 AM61.0 °F45.0 °F56 %30.09 in10.0 miENE (70°)8.1 mphScattered Clouds
2:54 AM60.1 °F42.1 °F51 %30.09 in10.0 miNE (50°)10.4 mphClear
3:54 AM59.0 °F41.0 °F51 %30.10 in10.0 miEast (90°)4.6 mphClear
4:54 AM59.0 °F41.0 °F51 %30.12 in10.0 miENE (60°)5.8 mphOvercast
5:54 AM59.0 °F41.0 °F51 %30.13 in10.0 miENE (60°)4.6 mphOvercast
6:54 AM57.9 °F42.1 °F56 %30.14 in10.0 miENE (70°)3.5 mphOvercast
7:54 AM59.0 °F39.9 °F49 %30.16 in10.0 miCalmOvercast
8:54 AM59.0 °F39.0 °F48 %30.17 in10.0 miCalmMostly Cloudy
9:54 AM62.1 °F36.0 °F38 %30.18 in10.0 miNE (50°)8.1 mphOvercast
10:54 AM66.0 °F39.0 °F37 %30.18 in10.0 miNE (40°)5.8 mphClear
11:54 AM70.0 °F39.0 °F32 %30.18 in10.0 miNE (50°)11.5 mph19.6 mphClear
12:54 PM73.0 °F30.9 °F21 %30.17 in10.0 miEast (90°)9.2 mphClear
1:54 PM73.9 °F35.1 °F24 %30.14 in10.0 miVariable6.9 mphClear
2:54 PM75.0 °F37.9 °F26 %30.14 in10.0 miVariable5.8 mphClear
3:54 PM73.0 °F39.0 °F29 %30.15 in10.0 miVariable5.8 mphOvercast
4:54 PM72.0 °F39.0 °F30 %30.16 in10.0 miSE (130°)8.1 mphOvercast
5:54 PM70.0 °F41.0 °F35 %30.18 in10.0 miESE (120°)4.6 mphClear
6:54 PM66.9 °F37.9 °F34 %30.19 in10.0 miCalmClear
7:54 PM60.1 °F41.0 °F49 %30.22 in10.0 miEast (100°)3.5 mphClear
8:54 PM59.0 °F43.0 °F55 %30.24 in10.0 miEast (90°)3.5 mphClear
9:54 PM60.1 °F51.1 °F72 %30.25 in10.0 miENE (70°)3.5 mphClear
10:43 PM59.0 °F51.8 °F77 %30.26 in10.0 miNNE (20°)3.5 mphMostly Cloudy
10:54 PM59.0 °F52.0 °F78 %30.25 in10.0 miNE (50°)3.5 mphOvercast
11:54 PM60.1 °F52.0 °F75 %30.25 in10.0 miESE (120°)5.8 mphOvercast
Hourly data recorded from KAVP, located miles away from Hazleton, Pennsylvania







STORIES FROM OUR PARTNERS